Flag for Iran Weather past 2 weeks in Mashhad, Iran

Now
91 °F

Sunny.


Feels Like: 87 °F
Forecast: 73 / 95 °F
Wind: 12 mph from Northeast

Location: Mashhad Airport

Current Time: Aug 20, 2014 at 7:14:54 PM

Latest Report: Aug 20, 2014 at 6:30 PM


Visibility: 10 mi

Pressure: 29.95 "Hg

Humidity: 9%

Dew point: 25 °F

Location of MashhadLocation

Historic Weather in Mashhad — Graph

°F

Mashhad temperature yesterday

Maximum temperature yesterday: 99 °F (at 1:55 PM)
Minimum temperature yesterday: 66 °F (at 5:30 AM)
Average temperature yesterday: 84 °F

Past Weeks' High & Low Weather Summary

 TemperatureHumidityPressure
High102 °F (Aug 6, 4:30 PM)47% (Aug 15, 5:00 AM)30.07 "Hg (Aug 15, 5:00 AM)
Low64 °F (Aug 16, 4:55 AM)5% (Aug 6, 3:00 PM)29.74 "Hg (Aug 6, 3:30 PM)
Average83 °F18%29.93 "Hg
* Reported Aug 5 5:30 PM — Aug 20 6:00 PM, Mashhad, Weather by CustomWeather, © 2014

Note: Actual official high and low records may vary slightly from our data, if they occured in-between our weather recording intervals... More about our weather records

Advertising

Mashhad weather history for previous 24 hours

 ConditionsComfort  
Time TempWeatherWind HumidityBarometerVisibility
6:00 PM
Aug 20
93 °FSunny.16 mph8%29.95 "Hg10 mi
5:30 PM95 °FSunny.16 mph7%29.95 "Hg10 mi
5:00 PM95 °FSunny.12 mph7%29.95 "Hg10 mi
4:30 PM97 °FSunny.12 mph7%29.95 "Hg10 mi
4:00 PM97 °FSunny.16 mph7%29.95 "Hg10 mi
3:30 PM97 °FSunny.14 mph7%29.95 "Hg10 mi
3:00 PM97 °FSunny.5 mph7%29.95 "Hg10 mi
2:30 PM97 °FSunny.9 mph8%29.98 "Hg10 mi
2:00 PM97 °FSunny.7 mph7%29.98 "Hg10 mi
1:30 PM95 °FSunny.18 mph8%29.98 "Hg10 mi
1:00 PM93 °FSunny.9 mph9%30.01 "Hg10 mi
12:30 PM93 °FSunny.7 mph9%30.01 "Hg10 mi
12:00 PM93 °FSunny.5 mph9%30.04 "Hg10 mi
11:30 AM91 °FSunny.9 mph10%30.04 "Hg10 mi
11:00 AM91 °FSunny.7 mph10%30.04 "Hg10 mi
10:30 AM88 °FSunny.7 mph11%30.07 "Hg10 mi
9:50 AM90 °FSunny.7 mph11%30.07 "Hg10 mi
9:30 AM86 °FSunny.9 mph14%30.07 "Hg10 mi
9:00 AM84 °FSunny.9 mph14%30.07 "Hg10 mi
8:30 AM82 °FSunny.7 mph15%30.07 "Hg10 mi
8:00 AM79 °FSunny.7 mph21%30.07 "Hg10 mi
7:30 AM79 °FSunny.No wind21%30.04 "Hg10 mi
7:00 AM75 °FClear.5 mph27%30.01 "Hg10 mi
6:30 AM70 °FClear.5 mph31%30.01 "Hg10 mi
6:00 AM68 °FClear.No wind33%30.01 "Hg10 mi
5:30 AM68 °FClear.No wind28%30.01 "Hg10 mi
5:00 AM68 °FClear.No wind28%30.01 "Hg10 mi
4:20 AM72 °FClear.5 mph23%30.01 "Hg10 mi
4:00 AM73 °FClear.5 mph19%30.01 "Hg10 mi
3:30 AM77 °FClear.7 mph17%30.01 "Hg10 mi
3:00 AM77 °FClear.7 mph17%30.01 "Hg10 mi
2:30 AM77 °FClear.7 mph17%30.01 "Hg10 mi
2:00 AM77 °FClear.7 mph17%30.01 "Hg10 mi
1:30 AM77 °FClear.7 mph17%30.01 "Hg10 mi
1:00 AM79 °FClear.9 mph15%30.01 "Hg10 mi
12:30 AM79 °FClear.7 mph15%30.01 "Hg10 mi
12:00 AM81 °FClear.5 mph15%30.01 "Hg10 mi
11:30 PM
Aug 19
81 °FClear.5 mph14%30.01 "Hg10 mi
11:00 PM81 °FClear.7 mph15%30.01 "Hg10 mi
10:30 PM81 °FClear.7 mph16%30.01 "Hg10 mi
10:00 PM82 °FClear.5 mph16%30.01 "Hg10 mi
9:30 PM82 °FClear.7 mph16%30.01 "Hg10 mi
9:00 PM84 °FClear.5 mph14%30.01 "Hg10 mi
8:30 PM84 °FSunny.7 mph12%29.98 "Hg10 mi
8:00 PM88 °FSunny.9 mph11%29.98 "Hg10 mi
7:30 PM91 °FSunny.16 mph10%29.95 "Hg10 mi
Weather by CustomWeather, © 2014

See weather overviewHow to use our weather pages